Time,TemperatureF,DewpointF,PressureIn,WindDirection,WindDirectionDegrees,WindSpeedMPH,WindSpeedGustMPH,Humidity,HourlyPrecipIn,Conditions,Clouds,dailyrainin,SoftwareType,DateUTC
2013-11-02 00:24:00,62.0,-99.9,29.63,WNW,282,8.0,-999.0,-999,-99.99,,,-99.99,,2013-11-02 04:24:00,
2013-11-02 00:34:00,62.0,-99.9,29.63,WNW,282,8.0,-999.0,-999,-99.99,,,-99.99,,2013-11-02 04:34:00,
2013-11-02 00:44:00,62.0,-99.9,29.63,WNW,282,8.0,-999.0,-999,-99.99,,,-99.99,,2013-11-02 04:44:00,
2013-11-02 00:54:00,62.0,-99.9,29.62,WNW,298,7.0,-999.0,-999,-99.99,,,-99.99,,2013-11-02 04:54:00,
2013-11-02 01:04:00,62.0,-99.9,29.62,WNW,298,7.0,-999.0,-999,-99.99,,,-99.99,,2013-11-02 05:04:00,
2013-11-02 01:13:00,62.0,-99.9,29.62,WNW,298,7.0,-999.0,-999,-99.99,,,-99.99,,2013-11-02 05:13:00,
2013-11-02 01:22:00,62.0,-99.9,29.62,NW,326,3.0,-999.0,-999,-99.99,,,-99.99,,2013-11-02 05:22:00,
2013-11-02 01:34:00,62.0,-99.9,29.62,NW,326,3.0,-999.0,-999,-99.99,,,-99.99,,2013-11-02 05:34:00,
2013-11-02 01:52:00,62.0,-99.9,29.61,NW,306,5.0,-999.0,-999,-99.99,,,-99.99,,2013-11-02 05:52:00,
2013-11-02 02:02:00,62.0,-99.9,29.61,NW,306,5.0,-999.0,-999,-99.99,,,-99.99,,2013-11-02 06:02:00,
2013-11-02 02:22:00,61.0,-99.9,29.64,WNW,299,3.0,-999.0,-999,-99.99,,,-99.99,,2013-11-02 06:22:00,
2013-11-02 02:32:00,61.0,-99.9,29.64,WNW,299,3.0,-999.0,-999,-99.99,,,-99.99,,2013-11-02 06:32:00,
2013-11-02 02:52:00,60.0,-99.9,29.62,East,92,3.0,-999.0,-999,-99.99,,,-99.99,,2013-11-02 06:52:00,
2013-11-02 03:03:00,60.0,-99.9,29.62,East,92,3.0,-999.0,-999,-99.99,,,-99.99,,2013-11-02 07:03:00,
2013-11-02 03:12:00,60.0,-99.9,29.62,East,92,3.0,-999.0,-999,-99.99,,,-99.99,,2013-11-02 07:12:00,
2013-11-02 03:22:00,60.0,-99.9,29.63,North,355,1.0,-999.0,-999,-99.99,,,-99.99,,2013-11-02 07:22:00,
2013-11-02 03:32:00,60.0,-99.9,29.63,North,355,1.0,-999.0,-999,-99.99,,,-99.99,,2013-11-02 07:32:00,
2013-11-02 03:52:00,60.0,-99.9,29.64,North,349,1.0,-999.0,-999,-99.99,,,-99.99,,2013-11-02 07:52:00,
2013-11-02 04:02:00,60.0,-99.9,29.64,North,349,1.0,-999.0,-999,-99.99,,,-99.99,,2013-11-02 08:02:00,
2013-11-02 04:22:00,60.0,-99.9,29.64,NNE,20,5.0,-999.0,-999,-99.99,,,-99.99,,2013-11-02 08:22:00,
2013-11-02 04:32:00,60.0,-99.9,29.64,NNE,20,5.0,-999.0,-999,-99.99,,,-99.99,,2013-11-02 08:32:00,
2013-11-02 04:52:00,59.0,-99.9,29.63,NE,49,3.0,-999.0,-999,-99.99,,,-99.99,,2013-11-02 08:52:00,
2013-11-02 05:02:00,59.0,-99.9,29.63,NE,49,3.0,-999.0,-999,-99.99,,,-99.99,,2013-11-02 09:02:00,
2013-11-02 05:11:00,59.0,-99.9,29.63,NE,49,3.0,-999.0,-999,-99.99,,,-99.99,,2013-11-02 09:11:00,
2013-11-02 05:22:00,59.0,-99.9,29.63,NNE,22,6.0,-999.0,-999,-99.99,,,-99.99,,2013-11-02 09:22:00,
2013-11-02 05:33:00,59.0,-99.9,29.63,NNE,22,6.0,-999.0,-999,-99.99,,,-99.99,,2013-11-02 09:33:00,
2013-11-02 05:43:00,59.0,-99.9,29.63,NNE,22,6.0,-999.0,-999,-99.99,,,-99.99,,2013-11-02 09:43:00,
2013-11-02 05:53:00,59.0,-99.9,29.64,NE,35,3.0,-999.0,-999,-99.99,,,-99.99,,2013-11-02 09:53:00,
2013-11-02 06:03:00,59.0,-99.9,29.64,NE,35,3.0,-999.0,-999,-99.99,,,-99.99,,2013-11-02 10:03:00,
2013-11-02 06:23:00,59.0,-99.9,29.64,ENE,58,1.0,-999.0,-999,-99.99,,,-99.99,,2013-11-02 10:23:00,
2013-11-02 06:33:00,59.0,-99.9,29.64,ENE,58,1.0,-999.0,-999,-99.99,,,-99.99,,2013-11-02 10:33:00,
2013-11-02 06:53:00,59.0,-99.9,29.65,West,275,1.0,-999.0,-999,-99.99,,,-99.99,,2013-11-02 10:53:00,
2013-11-02 07:02:00,59.0,-99.9,29.65,West,275,1.0,-999.0,-999,-99.99,,,-99.99,,2013-11-02 11:02:00,
2013-11-02 07:22:00,58.0,-99.9,29.64,ENE,58,2.0,-999.0,-999,-99.99,,,-99.99,,2013-11-02 11:22:00,
2013-11-02 07:33:00,58.0,-99.9,29.64,ENE,58,2.0,-999.0,-999,-99.99,,,-99.99,,2013-11-02 11:33:00,
2013-11-02 07:42:00,58.0,-99.9,29.64,ENE,58,2.0,-999.0,-999,-99.99,,,-99.99,,2013-11-02 11:42:00,
2013-11-02 07:52:00,58.0,-99.9,29.64,SE,144,6.0,-999.0,-999,-99.99,,,-99.99,,2013-11-02 11:52:00,
2013-11-02 08:02:00,58.0,-99.9,29.64,SE,144,6.0,-999.0,-999,-99.99,,,-99.99,,2013-11-02 12:02:00,
2013-11-02 08:22:00,58.0,-99.9,29.64,South,184,2.0,-999.0,-999,-99.99,,,-99.99,,2013-11-02 12:22:00,
2013-11-02 08:32:00,58.0,-99.9,29.64,South,184,2.0,-999.0,-999,-99.99,,,-99.99,,2013-11-02 12:32:00,
2013-11-02 08:52:00,58.0,-99.9,29.65,SSE,159,2.0,-999.0,-999,-99.99,,,-99.99,,2013-11-02 12:52:00,
2013-11-02 09:02:00,58.0,-99.9,29.65,SSE,159,2.0,-999.0,-999,-99.99,,,-99.99,,2013-11-02 13:02:00,
2013-11-02 09:22:00,59.0,-99.9,29.66,SE,140,8.0,-999.0,-999,-99.99,,,-99.99,,2013-11-02 13:22:00,
2013-11-02 09:32:00,59.0,-99.9,29.66,SE,140,8.0,-999.0,-999,-99.99,,,-99.99,,2013-11-02 13:32:00,
2013-11-02 09:52:00,58.0,-99.9,29.63,SE,139,7.0,-999.0,-999,-99.99,,,-99.99,,2013-11-02 13:52:00,
2013-11-02 10:02:00,58.0,-99.9,29.63,SE,139,7.0,-999.0,-999,-99.99,,,-99.99,,2013-11-02 14:02:00,
2013-11-02 10:11:00,58.0,-99.9,29.63,SE,139,7.0,-999.0,-999,-99.99,,,-99.99,,2013-11-02 14:11:00,
2013-11-02 10:22:00,59.0,-99.9,29.63,SE,141,7.0,-999.0,-999,-99.99,,,-99.99,,2013-11-02 14:22:00,
2013-11-02 10:32:00,59.0,-99.9,29.63,SE,141,7.0,-999.0,-999,-99.99,,,-99.99,,2013-11-02 14:32:00,
2013-11-02 10:52:00,59.0,-99.9,29.63,SSE,156,5.0,-999.0,-999,-99.99,,,-99.99,,2013-11-02 14:52:00,
2013-11-02 11:02:00,59.0,-99.9,29.63,SSE,156,5.0,-999.0,-999,-99.99,,,-99.99,,2013-11-02 15:02:00,
2013-11-02 11:22:00,59.0,-99.9,29.63,South,190,3.0,-999.0,-999,-99.99,,,-99.99,,2013-11-02 15:22:00,
2013-11-02 11:33:00,59.0,-99.9,29.63,South,190,3.0,-999.0,-999,-99.99,,,-99.99,,2013-11-02 15:33:00,
2013-11-02 11:43:00,59.0,-99.9,29.63,South,190,3.0,-999.0,-999,-99.99,,,-99.99,,2013-11-02 15:43:00,
2013-11-02 11:53:00,60.0,-99.9,29.61,South,188,3.0,-999.0,-999,-99.99,,,-99.99,,2013-11-02 15:53:00,
2013-11-02 12:03:00,60.0,-99.9,29.61,South,188,3.0,-999.0,-999,-99.99,,,-99.99,,2013-11-02 16:03:00,
2013-11-02 12:13:00,60.0,-99.9,29.61,South,188,3.0,-999.0,-999,-99.99,,,-99.99,,2013-11-02 16:13:00,
2013-11-02 12:24:00,60.0,-99.9,29.61,West,267,1.0,-999.0,-999,-99.99,,,-99.99,,2013-11-02 16:24:00,
2013-11-02 12:34:00,60.0,-99.9,29.61,West,267,1.0,-999.0,-999,-99.99,,,-99.99,,2013-11-02 16:34:00,
2013-11-02 12:54:00,65.0,-99.9,29.59,NE,36,1.0,-999.0,-999,-99.99,,,-99.99,,2013-11-02 16:54:00,
2013-11-02 13:03:00,65.0,-99.9,29.59,NE,36,1.0,-999.0,-999,-99.99,,,-99.99,,2013-11-02 17:03:00,
2013-11-02 13:22:00,60.0,-99.9,29.58,SW,217,3.0,-999.0,-999,-99.99,,,-99.99,,2013-11-02 17:22:00,
2013-11-02 13:34:00,60.0,-99.9,29.58,SW,217,3.0,-999.0,-999,-99.99,,,-99.99,,2013-11-02 17:34:00,
2013-11-02 13:53:00,60.0,-99.9,29.58,SSW,203,3.0,-999.0,-999,-99.99,,,-99.99,,2013-11-02 17:53:00,
2013-11-02 14:03:00,60.0,-99.9,29.58,SSW,203,3.0,-999.0,-999,-99.99,,,-99.99,,2013-11-02 18:03:00,
2013-11-02 14:12:00,60.0,-99.9,29.58,SSW,203,3.0,-999.0,-999,-99.99,,,-99.99,,2013-11-02 18:12:00,
2013-11-02 14:22:00,61.0,-99.9,29.58,SSW,203,2.0,-999.0,-999,-99.99,,,-99.99,,2013-11-02 18:22:00,
2013-11-02 14:32:00,61.0,-99.9,29.58,SSW,203,2.0,-999.0,-999,-99.99,,,-99.99,,2013-11-02 18:32:00,
2013-11-02 14:42:00,61.0,-99.9,29.58,SSW,203,2.0,-999.0,-999,-99.99,,,-99.99,,2013-11-02 18:42:00,
2013-11-02 14:53:00,61.0,-99.9,29.58,SSW,201,6.0,-999.0,-999,-99.99,,,-99.99,,2013-11-02 18:53:00,
2013-11-02 15:02:00,61.0,-99.9,29.58,SSW,201,6.0,-999.0,-999,-99.99,,,-99.99,,2013-11-02 19:02:00,
2013-11-02 15:22:00,61.0,-99.9,29.57,SSW,202,6.0,-999.0,-999,-99.99,,,-99.99,,2013-11-02 19:22:00,
2013-11-02 15:32:00,61.0,-99.9,29.57,SSW,202,6.0,-999.0,-999,-99.99,,,-99.99,,2013-11-02 19:32:00,
2013-11-02 15:52:00,61.0,-99.9,29.58,SSW,203,6.0,-999.0,-999,-99.99,,,-99.99,,2013-11-02 19:52:00,
2013-11-02 16:02:00,61.0,-99.9,29.58,SSW,203,6.0,-999.0,-999,-99.99,,,-99.99,,2013-11-02 20:02:00,
2013-11-02 16:22:00,60.0,-99.9,29.57,SSW,197,8.0,-999.0,-999,-99.99,,,-99.99,,2013-11-02 20:22:00,
2013-11-02 16:32:00,60.0,-99.9,29.57,SSW,197,8.0,-999.0,-999,-99.99,,,-99.99,,2013-11-02 20:32:00,
2013-11-02 16:43:00,60.0,-99.9,29.57,SSW,197,8.0,-999.0,-999,-99.99,,,-99.99,,2013-11-02 20:43:00,
2013-11-02 16:53:00,60.0,-99.9,29.57,SSW,204,5.0,-999.0,-999,-99.99,,,-99.99,,2013-11-02 20:53:00,
2013-11-02 17:02:00,60.0,-99.9,29.57,SSW,204,5.0,-999.0,-999,-99.99,,,-99.99,,2013-11-02 21:02:00,
2013-11-02 17:22:00,61.0,-99.9,29.57,SSW,203,4.0,-999.0,-999,-99.99,,,-99.99,,2013-11-02 21:22:00,
2013-11-02 17:33:00,61.0,-99.9,29.57,SSW,203,4.0,-999.0,-999,-99.99,,,-99.99,,2013-11-02 21:33:00,
2013-11-02 17:54:00,61.0,-99.9,29.58,West,267,3.0,-999.0,-999,-99.99,,,-99.99,,2013-11-02 21:54:00,
2013-11-02 18:03:00,61.0,-99.9,29.58,West,267,3.0,-999.0,-999,-99.99,,,-99.99,,2013-11-02 22:03:00,
2013-11-02 18:24:00,61.0,-99.9,29.59,West,273,4.0,-999.0,-999,-99.99,,,-99.99,,2013-11-02 22:24:00,
2013-11-02 18:34:00,61.0,-99.9,29.59,West,273,4.0,-999.0,-999,-99.99,,,-99.99,,2013-11-02 22:34:00,
2013-11-02 18:44:00,61.0,-99.9,29.59,West,273,4.0,-999.0,-999,-99.99,,,-99.99,,2013-11-02 22:44:00,
2013-11-02 18:54:00,60.0,-99.9,29.60,WSW,258,4.0,-999.0,-999,-99.99,,,-99.99,,2013-11-02 22:54:00,
2013-11-02 19:02:00,60.0,-99.9,29.60,WSW,258,4.0,-999.0,-999,-99.99,,,-99.99,,2013-11-02 23:02:00,
2013-11-02 19:22:00,60.0,-99.9,29.62,West,265,5.0,-999.0,-999,-99.99,,,-99.99,,2013-11-02 23:22:00,
2013-11-02 19:34:00,60.0,-99.9,29.62,West,265,5.0,-999.0,-999,-99.99,,,-99.99,,2013-11-02 23:34:00,
2013-11-02 19:52:00,59.0,-99.9,29.64,West,270,6.0,-999.0,-999,-99.99,,,-99.99,,2013-11-02 23:52:00,
2013-11-02 20:02:00,59.0,-99.9,29.64,West,270,6.0,-999.0,-999,-99.99,,,-99.99,,2013-11-03 00:02:00,
2013-11-02 20:22:00,59.0,-99.9,29.64,West,262,6.0,-999.0,-999,-99.99,,,-99.99,,2013-11-03 00:22:00,
2013-11-02 20:33:00,59.0,-99.9,29.64,West,262,6.0,-999.0,-999,-99.99,,,-99.99,,2013-11-03 00:33:00,
2013-11-02 20:52:00,59.0,-99.9,29.64,SW,229,3.0,-999.0,-999,-99.99,,,-99.99,,2013-11-03 00:52:00,
2013-11-02 21:02:00,59.0,-99.9,29.64,SW,229,3.0,-999.0,-999,-99.99,,,-99.99,,2013-11-03 01:02:00,
2013-11-02 21:22:00,59.0,-99.9,29.64,WNW,294,6.0,-999.0,-999,-99.99,,,-99.99,,2013-11-03 01:22:00,
2013-11-02 21:32:00,59.0,-99.9,29.64,WNW,294,6.0,-999.0,-999,-99.99,,,-99.99,,2013-11-03 01:32:00,
2013-11-02 21:42:00,59.0,-99.9,29.64,WNW,294,6.0,-999.0,-999,-99.99,,,-99.99,,2013-11-03 01:42:00,
2013-11-02 21:52:00,59.0,-99.9,29.65,WNW,301,6.0,-999.0,-999,-99.99,,,-99.99,,2013-11-03 01:52:00,
2013-11-02 22:02:00,59.0,-99.9,29.65,WNW,301,6.0,-999.0,-999,-99.99,,,-99.99,,2013-11-03 02:02:00,
2013-11-02 22:22:00,59.0,-99.9,29.67,NW,309,8.0,-999.0,-999,-99.99,,,-99.99,,2013-11-03 02:22:00,
2013-11-02 22:32:00,59.0,-99.9,29.67,NW,309,8.0,-999.0,-999,-99.99,,,-99.99,,2013-11-03 02:32:00,
2013-11-02 22:43:00,59.0,-99.9,29.67,NW,309,8.0,-999.0,-999,-99.99,,,-99.99,,2013-11-03 02:43:00,
2013-11-02 22:52:00,59.0,-99.9,29.67,NNW,341,7.0,-999.0,-999,-99.99,,,-99.99,,2013-11-03 02:52:00,
2013-11-02 23:02:00,59.0,-99.9,29.67,NNW,341,7.0,-999.0,-999,-99.99,,,-99.99,,2013-11-03 03:02:00,
2013-11-02 23:12:00,59.0,-99.9,29.67,NNW,341,7.0,-999.0,-999,-99.99,,,-99.99,,2013-11-03 03:12:00,
2013-11-02 23:22:00,59.0,-99.9,29.68,North,7,10.0,-999.0,-999,-99.99,,,-99.99,,2013-11-03 03:22:00,
2013-11-02 23:33:00,59.0,-99.9,29.68,North,7,10.0,-999.0,-999,-99.99,,,-99.99,,2013-11-03 03:33:00,
2013-11-02 23:54:00,58.0,-99.9,29.68,NNE,24,7.0,-999.0,-999,-99.99,,,-99.99,,2013-11-03 03:54:00,